This is the latest recevied weather packets stored in our database for station/object KC8SWY-15. If no packets are shown the sender has not sent any weather packets the latest 10 day(s).
| Time | Temp. | Humidity | Pressure | Rain* | Wind** | Luminosity | Snow |
|---|---|---|---|---|---|---|---|
| 1777905574 | 18.33° C | 52% | 1003.9 hPa | 0 mm | - | - | - |
| 1777905274 | 18.33° C | 52% | 1004 hPa | 0 mm | - | - | - |
| 1777904974 | 17.78° C | 54% | 1004 hPa | 0 mm | - | - | - |
| 1777904674 | 17.78° C | 55% | 1004.1 hPa | 0 mm | - | - | - |
| 1777904374 | 17.22° C | 54% | 1004.1 hPa | 0 mm | - | - | - |
| 1777904074 | 17.22° C | 57% | 1004.1 hPa | 0 mm | - | - | - |
| 1777903774 | 16.67° C | 58% | 1004.1 hPa | 0 mm | - | - | - |
| 1777903474 | 16.67° C | 58% | 1004.2 hPa | 0 mm | - | - | - |
| 1777903174 | 16.67° C | 58% | 1004.2 hPa | 0 mm | - | - | - |
| 1777902874 | 16.11° C | 61% | 1004.4 hPa | 0 mm | - | - | - |
| 1777902574 | 16.11° C | 60% | 1004.4 hPa | 0 mm | - | - | - |
| 1777902274 | 15.56° C | 62% | 1004.5 hPa | 0 mm | - | - | - |
| 1777901974 | 15.56° C | 62% | 1004.5 hPa | 0 mm | - | - | - |
| 1777901674 | 15° C | 63% | 1004.5 hPa | 0 mm | - | - | - |
| 1777901374 | 15° C | 63% | 1004.5 hPa | 0 mm | - | - | - |
| 1777901074 | 15° C | 64% | 1004.6 hPa | 0 mm | - | - | - |
| 1777900774 | 15° C | 67% | 1004.6 hPa | 0 mm | - | - | - |
| 1777900474 | 14.44° C | 65% | 1004.7 hPa | 0 mm | - | - | - |
| 1777900174 | 14.44° C | 67% | 1004.7 hPa | 0 mm | - | - | - |
| 1777899874 | 13.89° C | 67% | 1004.8 hPa | 0 mm | - | - | - |
| 1777899574 | 13.89° C | 67% | 1004.8 hPa | 0 mm | - | - | - |
| 1777899274 | 13.89° C | 68% | 1004.8 hPa | 0 mm | - | - | - |
| 1777898974 | 13.33° C | 70% | 1004.9 hPa | 0 mm | - | - | - |
| 1777898674 | 13.33° C | 69% | 1004.8 hPa | 0 mm | - | - | - |
| 1777898374 | 12.78° C | 70% | 1005 hPa | 0 mm | - | - | - |
* Rain latest hour (hover to see other rain measurements)
** Current wind speed in m/s (hover to see current wind gust speed)